CZ-2D R/B (53878 NORAD) Tracking and Keplerian Element Data

This shows tracking and keplerian element data for the satellite.

Feedback or suggestion? Click here.




ElementValue
Catalog53878
NameCZ-2D R/B
Epoch Orbit386
Epoch Day290.25727281
Epoch Year2022
RAAN290.1429
Inclination98.547
Eccentricity0.0123227
Argument of Perigee321.0191
Mean Anonmoly38.214
Mean Motion14.67979277
Decay Rate1.324E-05
L11 53878U 22115B 22290.25727281 .00001324 00000+0 21589-3 0 9998
L22 53878 98.5470 290.1429 0123227 321.0191 38.2140 14.67979277 3861



Live tracking and technical data element details for CZ-2D R/B (NORAD 53878). CZ-2D R/B can be tracked NOW for your location showing map with azimuth and elevation plus other details from your city location.







IsCatalogInMostPopularTable: catalog: 53878, numindb: -1

Insert: records affected: 1


GetName: 53878 CZ-2D R/B

Hit Count: inserted at: Thu, 08 Dec 2022 10:17:38 GMT